EHI
0 0 0 0 0 0 0 0 0 0 0 0 0 0 0 0 0 2 6 10 17 24 23 15 11 12 15 17 18 19 18 10 3 0 0 0 0 0 0 0 0 0 0 0 0 0 0 0 0
0 0 0 0 0 0 0 0 0 0 0 0 0 0 0 1 1 4 10 14 19 24 24 20 16 13 14 15 16 18 16 9 3 1 0 0 0 0 0 0 0 0 0 0 0 0 0 0 0
0 0 0 0 0 0 0 0 0 0 0 0 0 0 1 3 5 10 18 22 22 22 25 30 25 15 12 13 14 15 12 7 3 1 0 0 0 0 0 0 0 0 0 0 0 0 0 0 0
0 0 0 0 0 0 0 0 0 0 0 0 0 1 4 8 12 18 27 30 25 19 24 35 30 16 10 12 13 12 9 6 3 1 0 0 0 0 0 0 0 0 0 0 0 0 0 0 0
0 0 0 0 0 0 0 0 0 0 0 0 0 2 8 14 20 27 33 30 22 16 22 33 31 19 13 12 12 11 8 5 2 0 0 0 0 0 0 0 0 0 0 0 0 0 0 0 0
0 0 0 0 0 0 0 0 0 0 0 0 0 4 14 25 34 39 35 24 15 13 20 29 27 19 15 13 12 11 9 6 3 1 0 0 0 0 0 0 0 0 0 0 0 0 0 0 0
0 0 0 0 0 0 0 0 0 0 0 0 0 4 20 41 55 56 42 24 15 13 19 23 18 12 11 10 10 11 10 8 4 1 0 0 0 1 0 0 0 0 0 0 0 0 0 0 0
0 0 0 0 0 0 0 0 0 1 1 1 1 6 27 58 75 73 58 37 24 19 18 17 12 7 5 4 5 6 8 7 4 1 0 0 0 0 0 0 0 0 0 0 0 0 0 0 0
0 0 0 0 0 0 0 0 0 1 2 3 5 15 42 72 86 85 76 60 45 32 22 17 15 10 4 1 2 2 3 4 3 1 0 0 0 0 0 0 0 0 0 0 0 0 0 0 0
0 0 0 0 0 0 0 0 0 1 2 5 12 32 62 82 90 91 87 78 66 49 32 23 22 17 9 6 5 3 2 2 1 1 0 1 1 1 0 0 0 0 0 0 0 0 0 0 0
0 0 0 0 0 0 0 0 0 0 1 5 18 45 71 84 89 90 87 80 71 57 42 33 30 24 18 15 13 10 8 5 3 1 2 3 3 2 1 0 0 0 0 0 0 0 0 0 0
0 0 0 0 0 0 0 0 0 1 3 7 23 50 71 79 82 82 80 75 67 58 48 41 36 32 29 27 22 16 13 11 7 4 4 4 4 3 1 0 1 1 0 0 0 0 0 0 0
0 0 0 0 0 0 0 0 0 2 8 14 29 53 69 74 73 72 73 71 65 58 51 44 40 40 41 39 32 21 16 13 10 8 5 3 4 3 2 2 1 0 0 0 0 0 0 0 0
0 0 0 0 0 0 0 0 1 5 12 21 34 52 64 68 67 66 67 66 63 57 51 44 42 44 47 45 36 24 16 14 12 10 6 3 3 3 3 3 1 0 0 0 0 0 0 0 0
0 0 0 0 0 0 0 0 2 6 14 24 35 46 56 61 60 58 60 61 57 52 46 42 41 44 47 44 35 24 17 14 14 13 8 4 4 5 4 3 2 1 0 0 0 0 0 0 0
0 0 0 0 0 0 0 0 2 6 13 23 33 41 49 54 52 51 52 53 49 45 43 41 40 42 44 43 36 27 19 17 17 16 11 6 4 4 4 4 3 1 0 0 0 0 0 0 0
0 0 0 0 0 0 0 0 2 4 9 19 30 38 44 47 46 44 45 46 44 41 41 40 39 40 42 43 41 33 24 21 19 16 11 6 3 2 3 4 3 1 0 0 0 0 0 0 0
0 0 0 0 0 0 0 1 2 4 8 15 25 32 36 38 38 38 39 40 41 41 40 38 36 37 40 44 45 37 27 22 18 12 8 5 2 1 2 3 3 1 0 0 0 0 0 0 0
0 0 0 0 0 0 0 1 3 5 7 13 20 24 25 28 32 35 37 37 39 41 40 38 35 34 39 44 46 39 30 23 16 9 6 4 2 1 1 2 3 1 0 0 0 1 0 0 0
0 0 0 0 0 0 0 1 3 4 5 10 17 19 19 23 29 33 36 37 38 38 38 36 34 33 34 38 42 40 33 25 15 7 4 3 2 2 2 2 2 1 1 0 0 0 0 0 0
0 0 0 0 0 0 0 1 3 3 4 8 14 17 17 20 24 27 32 36 37 36 34 31 31 31 28 29 33 35 31 22 12 6 3 2 2 2 3 2 1 1 1 1 0 0 0 0 0
0 0 0 0 0 0 0 0 2 3 3 7 11 14 16 18 20 23 27 32 34 33 30 27 26 25 23 22 23 24 22 16 9 5 3 3 3 4 3 2 1 1 1 1 0 0 0 0 0
0 0 0 0 0 0 0 0 1 3 3 5 8 11 13 15 18 21 25 28 30 28 26 24 22 19 15 14 15 16 14 11 10 6 4 4 5 5 4 3 1 1 1 1 0 0 0 0 0
0 0 0 0 0 0 0 0 1 2 3 4 6 9 11 13 17 20 22 25 27 26 23 21 19 14 9 7 10 11 9 8 8 4 2 4 6 6 5 3 3 2 1 1 1 0 0 0 0
0 0 0 0 0 0 0 0 1 1 1 3 5 7 9 12 15 19 22 25 26 24 21 19 16 12 6 4 6 6 5 4 3 1 0 2 4 6 6 5 4 3 1 1 1 0 0 0 0
0 0 0 0 0 0 0 0 1 0 0 1 4 7 9 10 12 16 21 24 24 20 18 17 15 11 6 5 4 4 3 3 2 1 0 1 3 5 7 6 4 2 1 1 1 0 0 0 0
0 0 0 0 0 0 0 0 0 0 0 1 4 7 9 9 8 11 17 22 20 17 15 14 13 10 7 6 5 5 4 3 3 2 1 1 3 5 6 5 4 3 2 2 1 0 0 0 0
0 0 0 0 0 0 0 0 0 0 0 2 4 7 9 9 8 9 15 19 17 14 12 10 10 10 8 7 6 4 3 3 4 4 4 4 4 5 5 4 3 3 3 1 0 0 0 0 0
0 0 0 0 0 0 0 0 0 0 0 1 2 6 10 10 9 10 15 18 18 14 10 8 8 9 9 7 6 4 3 3 3 4 6 6 5 5 5 4 3 2 2 1 0 0 0 0 0
0 0 0 0 0 0 0 0 0 0 0 0 1 6 11 11 8 10 15 19 19 16 11 7 7 9 9 8 6 4 3 2 2 4 6 6 5 4 4 3 2 1 1 0 0 0 0 0 0
Wind_Speed
10 8 5 5 8 5 2 3 1 2 2 2 2 1 0 1 3 5 7 17 19 20 20 20 17 17 16 16 15 15 15 15 14 14 13 12 12 12 11 11 11 11 12 12 12 12 12 12 12
7 6 6 7 7 3 4 3 2 2 3 4 4 2 1 3 5 7 11 17 20 20 20 19 19 17 17 16 15 15 15 15 14 13 13 12 12 11 11 11 11 11 12 12 12 12 12 12 12
6 7 7 6 5 2 3 3 3 3 4 4 3 1 2 4 6 7 12 19 20 19 19 20 20 18 17 16 15 15 15 15 14 13 13 12 12 11 11 11 11 11 12 12 12 12 12 11 11
6 7 6 8 4 0 1 1 2 4 5 4 4 4 5 5 4 8 17 20 20 19 18 21 19 18 17 17 16 15 15 14 14 13 12 12 12 12 11 11 11 11 12 12 11 11 11 10 10
7 6 8 7 3 1 1 1 3 5 5 5 5 3 6 5 6 13 18 20 20 19 18 21 19 19 18 17 16 16 15 14 14 13 12 12 12 11 12 12 11 11 11 11 10 10 10 9 9
6 6 8 5 4 2 1 2 4 5 4 5 5 3 6 6 10 15 18 18 18 18 18 20 19 18 18 17 16 15 15 14 13 12 12 12 12 11 12 12 11 11 11 10 10 10 9 8 8
8 7 7 4 3 4 1 1 4 4 5 4 3 3 7 8 11 16 17 17 16 17 17 18 18 17 17 16 16 15 15 14 13 12 12 12 12 12 12 11 11 11 10 10 10 9 8 8 8
6 7 7 5 5 3 2 1 2 4 3 2 4 3 6 11 14 16 16 15 15 15 15 16 16 16 15 15 15 15 14 14 13 12 12 12 12 12 11 11 10 10 9 9 9 8 8 7 7
7 9 6 4 4 3 2 2 2 2 4 5 4 1 8 17 17 17 16 15 14 14 14 15 15 15 14 14 15 15 14 13 13 12 12 11 10 11 10 11 11 9 9 9 8 7 6 6 8
8 9 4 0 3 3 2 4 2 6 8 8 7 6 13 18 19 19 19 19 18 17 16 14 15 15 14 11 12 10 11 11 10 9 10 7 6 6 8 11 10 9 9 9 8 6 5 6 6
9 8 3 4 5 6 6 4 5 8 8 8 9 11 16 19 19 19 18 18 18 17 16 15 14 14 13 9 9 7 6 8 8 9 9 6 6 6 6 6 8 7 8 6 7 6 3 2 2
9 9 9 8 5 7 7 5 6 9 6 2 4 11 17 19 19 19 18 17 17 17 17 16 15 13 12 10 8 8 7 7 7 8 9 7 5 5 5 4 5 4 3 3 3 2 3 2 2
13 10 8 9 9 9 9 9 7 8 4 1 4 12 17 17 17 16 16 17 17 17 17 16 15 14 12 9 8 8 7 8 8 7 7 7 6 5 5 4 3 3 3 4 3 3 3 2 2
8 9 10 9 9 7 9 8 8 6 4 5 8 12 14 15 16 15 15 16 17 17 17 16 15 15 13 10 8 7 7 7 7 7 8 8 5 5 5 5 4 4 3 2 2 3 3 2 2
7 10 11 9 7 5 7 11 9 5 5 6 8 10 13 13 14 15 16 16 16 16 16 16 15 15 14 12 10 8 7 8 7 7 8 8 6 6 5 4 4 4 4 4 3 3 3 3 3
10 11 10 6 5 5 9 9 4 5 7 7 7 8 11 12 13 13 14 14 14 15 15 15 14 14 14 11 10 7 7 8 6 7 7 8 7 7 5 4 4 4 4 4 3 3 3 2 2
11 11 8 5 6 4 9 7 3 4 6 7 7 8 9 10 11 11 13 13 14 14 14 15 14 15 13 12 9 8 7 7 6 6 7 8 8 7 6 4 4 5 4 3 3 3 3 3 2
8 8 7 6 4 6 9 7 2 5 6 7 7 7 8 9 10 11 11 12 12 13 14 14 14 14 13 10 8 7 8 7 6 6 6 8 8 8 6 5 5 5 4 4 3 3 2 2 2
6 8 8 5 2 6 8 7 4 4 6 7 7 7 8 8 9 10 11 11 12 13 14 15 14 14 11 9 9 9 8 7 6 6 8 8 8 8 6 5 6 5 4 4 5 4 5 4 3
10 11 9 4 3 6 7 7 3 5 6 6 7 7 8 9 9 9 10 11 12 13 14 14 15 14 13 10 8 7 8 7 7 6 7 8 8 8 8 6 6 5 4 5 5 4 3 3 3
12 11 8 6 3 6 7 9 6 5 6 6 7 7 7 8 9 10 11 12 12 13 14 13 14 14 14 12 9 7 7 6 7 8 7 8 8 8 7 7 6 5 6 5 6 5 6 4 4
11 7 8 8 8 5 4 8 5 5 6 7 7 7 7 8 9 9 10 12 13 13 13 13 14 13 14 13 12 13 10 9 9 7 7 8 8 8 8 7 7 6 5 5 7 6 5 5 4
8 3 7 8 9 8 7 9 2 4 5 5 6 7 7 8 9 9 10 11 12 12 13 13 14 13 13 13 13 12 10 8 7 7 8 8 8 8 8 8 7 7 5 5 4 4 5 5 5
6 6 6 8 9 10 5 7 3 1 2 2 5 6 7 7 7 8 8 10 11 12 12 13 14 13 13 13 13 12 12 10 10 10 9 8 7 7 9 8 7 7 5 6 6 5 6 4 3
10 10 8 9 8 6 2 6 3 3 1 1 4 6 6 7 7 8 9 10 11 12 12 13 14 13 14 13 12 12 12 12 12 11 10 9 8 7 9 8 7 6 6 6 5 5 4 5 4
12 12 9 7 6 4 5 5 1 3 2 1 4 5 6 7 7 8 9 10 10 12 12 13 14 13 13 14 12 11 12 9 9 11 10 10 8 8 9 9 8 7 7 7 6 5 5 4 4
10 11 9 10 9 7 4 2 3 4 3 3 5 7 7 7 7 8 9 10 11 12 12 13 14 13 13 13 12 12 12 10 10 10 10 9 7 7 9 9 8 8 8 7 7 4 5 5 5
9 8 7 9 8 8 6 5 2 1 2 4 5 7 7 8 8 9 9 10 10 11 11 12 13 13 13 13 12 11 12 11 10 10 11 9 9 8 9 9 9 9 8 8 7 6 6 5 5
9 9 9 8 8 8 6 1 3 2 1 2 5 6 8 8 9 9 9 10 11 11 11 11 12 13 13 13 12 11 11 12 12 11 11 10 10 10 10 10 10 9 9 9 8 7 7 7 6
7 9 9 8 7 8 8 1 7 4 2 2 4 5 6 7 9 10 10 10 11 11 12 12 12 13 13 13 12 12 12 12 12 12 12 11 11 11 11 10 10 10 10 9 9 9 8 8 8
Wind_Direction
192 202 222 236 238 228 120 96 79 104 102 90 125 165 345 26 358 56 110 151 148 147 143 151 150 148 146 143 140 139 138 137 135 132 129 127 124 121 118 117 112 108 105 103 103 102 100 101 101
189 197 228 240 255 207 123 122 128 68 81 125 147 186 168 91 60 98 138 149 150 147 148 153 148 149 147 144 142 140 139 137 135 133 131 128 125 122 120 117 114 110 108 106 104 103 101 100 102
191 226 255 251 253 284 98 120 102 100 137 167 154 154 29 74 105 129 143 152 151 149 150 145 151 151 148 146 144 143 141 139 137 135 133 130 126 122 120 116 114 112 110 108 105 104 103 104 105
206 222 236 249 233 103 348 108 157 161 164 187 182 137 97 65 107 134 147 156 152 152 151 145 155 152 150 148 147 145 143 141 139 137 134 129 126 123 119 116 114 112 109 108 107 105 105 106 109
237 248 240 230 211 145 224 263 222 200 181 183 200 144 111 102 115 139 152 157 156 155 151 148 157 155 153 151 149 147 145 143 140 138 135 130 127 124 121 118 114 111 109 108 107 106 105 105 110
227 241 245 220 161 176 205 203 217 214 192 185 202 182 102 118 138 149 155 159 159 155 152 147 157 157 156 154 152 150 147 144 142 140 137 131 128 124 122 119 116 113 111 108 106 104 105 107 109
252 252 256 249 189 180 132 236 230 224 210 193 197 179 119 140 145 151 154 161 159 157 152 153 159 160 158 156 154 152 149 147 144 142 138 132 129 126 124 121 118 116 113 110 106 102 102 107 113
262 261 236 219 218 162 112 200 254 245 205 141 200 215 138 147 149 150 156 161 160 160 159 161 162 161 163 161 158 156 153 150 146 143 139 135 132 131 130 133 122 119 116 113 107 103 101 105 115
245 248 231 203 215 155 135 236 189 230 181 179 200 38 105 140 150 153 158 163 165 167 166 166 162 165 168 163 156 160 157 153 152 150 146 156 155 144 150 118 124 124 118 112 107 105 109 126 130
230 246 234 290 281 288 267 262 217 207 204 198 181 136 135 150 159 164 168 172 172 173 173 172 166 168 170 164 156 166 165 159 169 155 159 164 138 136 126 120 128 125 121 119 110 119 166 207 151
228 251 270 257 266 286 277 259 224 235 226 215 203 170 160 164 169 173 177 178 176 176 176 174 171 172 169 164 163 168 163 161 166 158 160 149 148 146 141 144 143 143 153 147 140 177 169 131 82
237 249 262 269 282 275 275 265 239 240 256 315 214 169 169 175 178 180 179 180 178 180 180 176 174 174 174 170 166 168 165 165 165 159 168 158 157 155 144 149 143 148 141 131 152 141 116 96 118
233 252 255 260 266 269 268 253 252 248 247 224 176 167 178 183 182 183 181 182 181 183 182 179 177 175 173 170 174 173 168 168 162 160 167 166 161 161 148 144 147 148 139 158 165 143 132 143 147
238 252 262 262 261 252 247 244 236 235 215 192 182 181 185 187 183 182 184 186 184 185 182 178 181 177 175 174 176 171 169 166 165 166 165 174 167 159 157 159 163 152 155 139 161 142 159 163 139
253 256 250 235 232 223 240 234 224 207 194 196 193 190 187 188 187 189 187 188 187 187 182 180 181 180 178 176 178 174 170 170 172 164 165 175 174 162 168 164 171 153 146 150 173 155 172 170 163
232 239 236 193 211 198 236 249 174 175 198 205 198 188 182 186 192 191 187 188 188 187 182 181 181 179 177 176 178 177 175 171 173 167 168 176 174 169 177 173 165 155 170 174 164 191 183 165 177
218 232 232 191 192 212 244 270 140 181 205 207 200 190 184 184 190 189 187 188 188 186 180 180 183 177 175 173 176 179 172 173 176 173 172 172 176 175 183 175 146 172 182 185 193 165 198 173 177
220 233 235 233 188 239 252 266 205 190 211 209 198 192 186 190 190 188 185 185 185 183 179 179 181 177 173 171 172 178 175 176 181 180 177 174 177 179 184 171 165 189 186 187 179 155 177 184 191
270 262 257 262 261 259 259 268 245 200 212 209 202 197 195 196 188 184 184 183 182 182 180 179 180 176 173 174 176 178 179 177 179 184 178 181 182 179 188 182 169 198 193 190 183 180 170 185 183
244 251 254 236 188 259 270 266 240 209 215 216 209 205 204 196 188 185 185 185 185 184 185 183 181 177 178 178 178 184 178 179 179 184 175 182 185 184 188 190 189 193 186 187 189 200 204 179 194
237 246 257 273 253 228 261 243 200 195 207 207 209 209 211 204 198 189 190 191 190 188 188 187 183 179 181 179 174 171 165 172 178 181 177 182 185 190 192 189 199 189 198 186 194 196 210 200 192
235 244 265 264 256 238 251 278 191 193 207 207 206 207 209 203 199 194 193 192 192 190 186 185 183 183 181 180 180 177 181 184 184 180 174 176 184 188 188 192 194 198 202 182 201 193 208 217 207
248 261 258 254 252 260 228 268 233 180 224 211 199 201 202 196 196 196 192 189 188 186 183 182 181 181 181 183 184 185 189 186 175 172 168 177 180 189 189 190 189 193 199 189 205 185 220 219 231
218 215 223 235 246 248 249 271 277 168 260 205 185 189 193 190 190 190 186 183 182 181 180 177 176 179 180 184 185 189 186 180 175 174 171 179 179 187 190 190 188 193 190 184 196 200 205 230 234
212 225 223 220 223 239 178 261 296 32 43 237 193 187 182 180 180 178 177 177 175 174 173 173 172 177 181 183 186 189 186 183 181 179 179 183 183 188 187 189 188 190 187 187 190 195 201 202 207
212 232 248 256 252 237 184 250 13 92 104 148 184 179 173 173 170 172 173 172 170 168 169 170 173 176 179 182 185 188 186 186 185 186 182 187 191 190 179 185 186 188 186 186 185 194 190 193 206
215 230 256 264 266 270 238 221 190 161 170 164 169 173 175 172 166 169 169 168 169 168 169 173 176 174 176 179 179 184 187 190 186 183 187 188 189 181 178 187 188 187 187 188 190 201 195 192 207
250 233 224 246 262 260 250 236 266 151 155 164 173 177 172 171 169 166 167 166 167 169 170 173 172 171 173 175 178 181 185 186 183 185 189 186 184 181 180 189 191 190 190 191 200 197 194 201 208
199 217 237 246 259 264 264 228 70 35 61 164 169 172 171 175 171 168 167 167 167 166 165 169 171 171 174 178 180 181 184 184 185 189 189 187 185 183 186 190 194 194 195 195 200 211 193 206 206
236 235 225 240 241 252 273 262 87 73 80 131 147 155 163 171 170 168 166 167 168 168 169 172 176 176 177 179 180 182 184 184 186 188 190 188 187 189 191 193 197 200 200 200 204 211 204 208 210